Time,TemperatureF,DewpointF,PressureIn,WindDirection,WindDirectionDegrees,WindSpeedMPH,WindSpeedGustMPH,Humidity,HourlyPrecipIn,Conditions,Clouds,dailyrainin,SoftwareType,DateUTC
2013-03-03 00:07:00,26.8,23.5,29.84,West,270,3.2,-999.0,87,-99.99,,,0.00,Acu-Link.com,2013-03-03 05:07:00,
2013-03-03 00:22:00,26.6,23.0,29.84,SW,225,2.2,-999.0,86,-99.99,,,0.00,Acu-Link.com,2013-03-03 05:22:00,
2013-03-03 00:38:00,26.6,22.7,29.84,NE,45,2.2,-999.0,85,-99.99,,,0.00,Acu-Link.com,2013-03-03 05:38:00,
2013-03-03 00:53:00,26.6,22.7,29.85,South,180,2.7,-999.0,85,-99.99,,,0.00,Acu-Link.com,2013-03-03 05:53:00,
2013-03-03 01:08:00,26.6,22.7,29.85,WSW,247,2.7,-999.0,85,-99.99,,,0.00,Acu-Link.com,2013-03-03 06:08:00,
2013-03-03 01:23:00,26.6,22.7,29.85,SW,225,2.7,-999.0,85,-99.99,,,0.00,Acu-Link.com,2013-03-03 06:23:00,
2013-03-03 01:38:00,26.6,23.3,29.85,WNW,292,7.3,-999.0,87,-99.99,,,0.00,Acu-Link.com,2013-03-03 06:38:00,
2013-03-03 01:53:00,26.6,23.8,29.85,West,270,2.7,-999.0,89,-99.99,,,0.00,Acu-Link.com,2013-03-03 06:53:00,
2013-03-03 02:08:00,26.6,23.8,29.85,WNW,292,5.8,-999.0,89,-99.99,,,0.00,Acu-Link.com,2013-03-03 07:08:00,
2013-03-03 02:24:00,26.6,23.8,29.85,West,270,3.7,-999.0,89,-99.99,,,0.00,Acu-Link.com,2013-03-03 07:24:00,
2013-03-03 02:39:00,26.6,23.8,29.85,West,270,2.7,-999.0,89,-99.99,,,0.00,Acu-Link.com,2013-03-03 07:39:00,
2013-03-03 02:54:00,26.6,23.8,29.84,NW,315,4.7,-999.0,89,-99.99,,,0.00,Acu-Link.com,2013-03-03 07:54:00,
2013-03-03 03:09:00,26.4,23.6,29.84,SSW,202,6.3,-999.0,89,-99.99,,,0.00,Acu-Link.com,2013-03-03 08:09:00,
2013-03-03 03:24:00,26.4,23.9,29.83,West,270,4.7,-999.0,90,-99.99,,,0.00,Acu-Link.com,2013-03-03 08:24:00,
2013-03-03 03:40:00,26.4,24.1,29.83,West,270,2.7,-999.0,91,-99.99,,,0.00,Acu-Link.com,2013-03-03 08:40:00,
2013-03-03 03:55:00,26.2,24.2,29.82,WNW,292,4.7,-999.0,92,-99.99,,,0.00,Acu-Link.com,2013-03-03 08:55:00,
2013-03-03 04:18:00,26.2,24.5,29.83,West,270,3.7,-999.0,93,-99.99,,,0.00,Acu-Link.com,2013-03-03 09:18:00,
2013-03-03 04:33:00,26.2,24.7,29.82,West,270,2.2,-999.0,94,-99.99,,,0.00,Acu-Link.com,2013-03-03 09:33:00,
2013-03-03 04:49:00,26.2,24.7,29.83,WSW,247,4.7,-999.0,94,-99.99,,,0.00,Acu-Link.com,2013-03-03 09:49:00,
2013-03-03 05:04:00,26.2,24.7,29.83,West,270,3.7,-999.0,94,-99.99,,,0.00,Acu-Link.com,2013-03-03 10:04:00,
2013-03-03 05:19:00,26.2,25.0,29.82,WSW,247,5.8,-999.0,95,-99.99,,,0.00,Acu-Link.com,2013-03-03 10:19:00,
2013-03-03 05:34:00,26.1,25.1,29.83,SSW,202,2.7,-999.0,96,-99.99,,,0.00,Acu-Link.com,2013-03-03 10:34:00,
2013-03-03 05:49:00,26.1,25.4,29.83,ENE,67,2.7,-999.0,97,-99.99,,,0.00,Acu-Link.com,2013-03-03 10:49:00,
2013-03-03 06:05:00,26.1,25.1,29.83,WSW,247,1.7,-999.0,96,-99.99,,,0.00,Acu-Link.com,2013-03-03 11:05:00,
2013-03-03 06:20:00,26.1,25.1,29.83,North,0,2.2,-999.0,96,-99.99,,,0.00,Acu-Link.com,2013-03-03 11:20:00,
2013-03-03 06:35:00,26.1,25.1,29.84,West,270,3.2,-999.0,96,-99.99,,,0.00,Acu-Link.com,2013-03-03 11:35:00,
2013-03-03 06:50:00,25.9,24.9,29.84,West,270,3.7,-999.0,96,-99.99,,,0.00,Acu-Link.com,2013-03-03 11:50:00,
2013-03-03 07:05:00,25.9,24.9,29.84,NW,315,4.2,-999.0,96,-99.99,,,0.00,Acu-Link.com,2013-03-03 12:05:00,
2013-03-03 07:21:00,25.9,24.9,29.84,West,270,3.7,-999.0,96,-99.99,,,0.00,Acu-Link.com,2013-03-03 12:21:00,
2013-03-03 07:36:00,25.9,24.9,29.84,WNW,292,4.2,-999.0,96,-99.99,,,0.00,Acu-Link.com,2013-03-03 12:36:00,
2013-03-03 07:51:00,26.2,25.0,29.85,WNW,292,2.7,-999.0,95,-99.99,,,0.00,Acu-Link.com,2013-03-03 12:51:00,
2013-03-03 08:06:00,26.6,24.6,29.84,WSW,247,2.2,-999.0,92,-99.99,,,0.00,Acu-Link.com,2013-03-03 13:06:00,
2013-03-03 08:22:00,26.6,24.1,29.85,NW,315,1.7,-999.0,90,-99.99,,,0.00,Acu-Link.com,2013-03-03 13:22:00,
2013-03-03 08:37:00,27.1,24.0,29.85,West,270,2.2,-999.0,88,-99.99,,,0.00,Acu-Link.com,2013-03-03 13:37:00,
2013-03-03 08:52:00,28.2,24.6,29.86,West,270,4.2,-999.0,86,-99.99,,,0.00,Acu-Link.com,2013-03-03 13:52:00,
2013-03-03 09:07:00,28.4,23.6,29.86,WSW,247,5.3,-999.0,82,-99.99,,,0.00,Acu-Link.com,2013-03-03 14:07:00,
2013-03-03 09:22:00,28.8,24.6,29.86,NNE,22,1.7,-999.0,84,-99.99,,,0.00,Acu-Link.com,2013-03-03 14:22:00,
2013-03-03 09:37:00,28.4,23.9,29.86,WNW,292,2.7,-999.0,83,-99.99,,,0.00,Acu-Link.com,2013-03-03 14:37:00,
2013-03-03 09:53:00,28.4,24.2,29.85,WNW,292,2.7,-999.0,84,-99.99,,,0.00,Acu-Link.com,2013-03-03 14:53:00,
2013-03-03 10:08:00,28.8,24.9,29.86,SSE,157,2.7,-999.0,85,-99.99,,,0.00,Acu-Link.com,2013-03-03 15:08:00,
2013-03-03 10:23:00,28.6,24.4,29.86,East,90,1.7,-999.0,84,-99.99,,,0.00,Acu-Link.com,2013-03-03 15:23:00,
2013-03-03 10:38:00,28.8,24.9,29.86,WNW,292,2.2,-999.0,85,-99.99,,,0.00,Acu-Link.com,2013-03-03 15:38:00,
2013-03-03 10:53:00,29.3,25.1,29.86,WSW,247,2.7,-999.0,84,-99.99,,,0.00,Acu-Link.com,2013-03-03 15:53:00,
2013-03-03 11:09:00,27.7,25.9,29.86,WSW,247,2.2,-999.0,93,-99.99,,,0.00,Acu-Link.com,2013-03-03 16:09:00,
2013-03-03 11:24:00,28.6,25.2,29.85,SSW,202,2.2,-999.0,87,-99.99,,,0.00,Acu-Link.com,2013-03-03 16:24:00,
2013-03-03 11:39:00,30.6,25.2,29.85,WSW,247,6.3,-999.0,80,-99.99,,,0.00,Acu-Link.com,2013-03-03 16:39:00,
2013-03-03 11:54:00,29.8,25.9,29.85,NNE,22,2.7,-999.0,85,-99.99,,,0.00,Acu-Link.com,2013-03-03 16:54:00,
2013-03-03 12:10:00,29.3,24.8,29.85,WNW,292,4.7,-999.0,83,-99.99,,,0.00,Acu-Link.com,2013-03-03 17:10:00,
2013-03-03 12:25:00,29.1,24.3,29.85,SSE,157,1.7,-999.0,82,-99.99,,,0.00,Acu-Link.com,2013-03-03 17:25:00,
2013-03-03 12:40:00,30.7,24.4,29.84,ESE,112,2.7,-999.0,77,-99.99,,,0.00,Acu-Link.com,2013-03-03 17:40:00,
2013-03-03 12:55:00,30.9,20.9,29.84,WNW,292,7.8,-999.0,66,-99.99,,,0.01,Acu-Link.com,2013-03-03 17:55:00,
2013-03-03 13:11:00,31.8,20.7,29.83,West,270,10.4,-999.0,63,-99.99,,,0.01,Acu-Link.com,2013-03-03 18:11:00,
2013-03-03 13:26:00,31.3,21.3,29.83,South,180,3.2,-999.0,66,-99.99,,,0.01,Acu-Link.com,2013-03-03 18:26:00,
2013-03-03 13:41:00,31.3,22.3,29.83,SW,225,6.3,-999.0,69,-99.99,,,0.01,Acu-Link.com,2013-03-03 18:41:00,
2013-03-03 13:57:00,32.0,21.9,29.82,West,270,3.7,-999.0,66,-99.99,,,0.01,Acu-Link.com,2013-03-03 18:57:00,
2013-03-03 14:12:00,31.5,22.5,29.83,NE,45,2.2,-999.0,69,-99.99,,,0.01,Acu-Link.com,2013-03-03 19:12:00,
2013-03-03 14:27:00,31.1,21.1,29.83,North,0,3.7,-999.0,66,-99.99,,,0.01,Acu-Link.com,2013-03-03 19:27:00,
2013-03-03 14:42:00,31.3,22.0,29.83,SW,225,1.7,-999.0,68,-99.99,,,0.01,Acu-Link.com,2013-03-03 19:42:00,
2013-03-03 14:58:00,32.0,22.7,29.83,West,270,4.7,-999.0,68,-99.99,,,0.01,Acu-Link.com,2013-03-03 19:58:00,
2013-03-03 15:13:00,31.8,21.8,29.82,SSW,202,1.7,-999.0,66,-99.99,,,0.01,Acu-Link.com,2013-03-03 20:13:00,
2013-03-03 15:28:00,32.5,20.9,29.82,WSW,247,6.8,-999.0,62,-99.99,,,0.01,Acu-Link.com,2013-03-03 20:28:00,
2013-03-03 15:43:00,32.5,21.3,29.83,SSW,202,4.7,-999.0,63,-99.99,,,0.01,Acu-Link.com,2013-03-03 20:43:00,
2013-03-03 15:58:00,32.2,21.4,29.82,NNW,337,3.2,-999.0,64,-99.99,,,0.01,Acu-Link.com,2013-03-03 20:58:00,
2013-03-03 16:14:00,32.2,20.7,29.82,ESE,112,2.7,-999.0,62,-99.99,,,0.01,Acu-Link.com,2013-03-03 21:14:00,
2013-03-03 16:29:00,33.1,19.5,29.82,North,0,4.2,-999.0,57,-99.99,,,0.01,Acu-Link.com,2013-03-03 21:29:00,
2013-03-03 16:44:00,32.9,20.2,29.82,NW,315,4.2,-999.0,59,-99.99,,,0.01,Acu-Link.com,2013-03-03 21:44:00,
2013-03-03 17:00:00,34.2,19.7,29.82,West,270,3.7,-999.0,55,-99.99,,,0.01,Acu-Link.com,2013-03-03 22:00:00,
2013-03-03 17:15:00,34.0,19.6,29.82,West,270,8.3,-999.0,55,-99.99,,,0.01,Acu-Link.com,2013-03-03 22:15:00,
2013-03-03 17:30:00,32.7,18.8,29.83,West,270,7.8,-999.0,56,-99.99,,,0.01,Acu-Link.com,2013-03-03 22:30:00,
2013-03-03 17:45:00,32.0,18.9,29.83,SSW,202,2.2,-999.0,58,-99.99,,,0.01,Acu-Link.com,2013-03-03 22:45:00,
2013-03-03 18:01:00,32.0,18.9,29.83,WSW,247,3.2,-999.0,58,-99.99,,,0.01,Acu-Link.com,2013-03-03 23:01:00,
2013-03-03 18:16:00,31.5,20.7,29.84,NNE,22,2.2,-999.0,64,-99.99,,,0.01,Acu-Link.com,2013-03-03 23:16:00,
2013-03-03 18:31:00,30.4,21.1,29.83,North,0,2.7,-999.0,68,-99.99,,,0.01,Acu-Link.com,2013-03-03 23:31:00,
2013-03-03 18:47:00,29.7,21.1,29.84,NNE,22,2.2,-999.0,70,-99.99,,,0.01,Acu-Link.com,2013-03-03 23:47:00,
2013-03-03 19:02:00,28.8,21.6,29.84,East,90,0.0,-999.0,74,-99.99,,,0.01,Acu-Link.com,2013-03-04 00:02:00,
2013-03-03 19:17:00,27.9,21.0,29.84,NNW,337,0.0,-999.0,75,-99.99,,,0.01,Acu-Link.com,2013-03-04 00:17:00,
2013-03-03 19:32:00,26.8,20.0,29.84,SSW,202,0.0,-999.0,75,-99.99,,,0.01,Acu-Link.com,2013-03-04 00:32:00,
2013-03-03 19:48:00,25.5,20.2,29.85,South,180,0.0,-999.0,80,-99.99,,,0.01,Acu-Link.com,2013-03-04 00:48:00,
2013-03-03 20:03:00,25.2,20.8,29.85,SW,225,0.0,-999.0,83,-99.99,,,0.01,Acu-Link.com,2013-03-04 01:03:00,
2013-03-03 20:18:00,24.4,20.6,29.85,ESE,112,0.0,-999.0,85,-99.99,,,0.01,Acu-Link.com,2013-03-04 01:18:00,
2013-03-03 20:33:00,24.4,20.8,29.85,SSW,202,0.0,-999.0,86,-99.99,,,0.01,Acu-Link.com,2013-03-04 01:33:00,
2013-03-03 20:48:00,23.4,20.4,29.86,NE,45,0.0,-999.0,88,-99.99,,,0.01,Acu-Link.com,2013-03-04 01:48:00,
2013-03-03 21:04:00,23.0,20.0,29.85,SSW,202,0.0,-999.0,88,-99.99,,,0.01,Acu-Link.com,2013-03-04 02:04:00,
2013-03-03 21:19:00,22.3,19.8,29.85,SE,135,0.0,-999.0,90,-99.99,,,0.01,Acu-Link.com,2013-03-04 02:19:00,
2013-03-03 21:34:00,21.9,19.7,29.86,SSW,202,0.0,-999.0,91,-99.99,,,0.01,Acu-Link.com,2013-03-04 02:34:00,
2013-03-03 21:49:00,22.1,20.6,29.86,NW,315,0.0,-999.0,94,-99.99,,,0.01,Acu-Link.com,2013-03-04 02:49:00,
2013-03-03 22:05:00,21.7,20.0,29.86,WSW,247,0.0,-999.0,93,-99.99,,,0.01,Acu-Link.com,2013-03-04 03:05:00,
2013-03-03 22:20:00,21.4,19.7,29.86,WSW,247,0.0,-999.0,93,-99.99,,,0.01,Acu-Link.com,2013-03-04 03:20:00,
2013-03-03 22:35:00,21.0,19.6,29.86,WSW,247,0.0,-999.0,94,-99.99,,,0.01,Acu-Link.com,2013-03-04 03:35:00,
2013-03-03 22:50:00,21.0,19.8,29.86,WSW,247,0.0,-999.0,95,-99.99,,,0.01,Acu-Link.com,2013-03-04 03:50:00,
2013-03-03 23:06:00,20.3,19.1,29.86,NW,315,0.0,-999.0,95,-99.99,,,0.01,Acu-Link.com,2013-03-04 04:06:00,
2013-03-03 23:21:00,20.5,19.8,29.86,WNW,292,0.0,-999.0,97,-99.99,,,0.01,Acu-Link.com,2013-03-04 04:21:00,
2013-03-03 23:37:00,20.7,20.0,29.87,WNW,292,0.0,-999.0,97,-99.99,,,0.01,Acu-Link.com,2013-03-04 04:37:00,
2013-03-03 23:52:00,20.1,19.4,29.87,West,270,0.0,-999.0,97,-99.99,,,0.01,Acu-Link.com,2013-03-04 04:52:00,